sat.trackr.live / text

‹ back to catalog

STARLINK-31608

NORAD 59397 · 2024-062X

PAYLOAD ACTIVE UNKNOWN

§ Identity

Operator
Country
US
Launch date
2024-04-02
Launch site
AFWTR
Launch vehicle
Mass (kg)
RCS (m²)

Purposes: comms

External: N2YO · Heavens-Above · Gunter

§ Orbital elements

Epoch: 2026-05-25T00:22:47.021664Z

Period
94.11 min
Inclination
53.1610°
Eccentricity
0.0001481
Mean motion
15.30190698 rev/d
Perigee alt
474.2 km
Apogee alt
476.3 km
Semi-major
6,853.4 km
B*
1.0674e-5
RAAN
261.3915°
Arg perigee
88.8037°
Mean anomaly
271.3133°
Rev number
12,130

§ Raw data

STARLINK-316081 59397U 24062X   26145.01582201 -.00000043  00000+0  10674-4 0  99932 59397  53.1610 261.3915 0001481  88.8037 271.3133 15.30190698121305

JSON: /api/v1/satellites/59397 · /tle

For live sub-satellite position, see the globe view (requires WebGL).

§ Visibility from observer

Set your observer location to see the next 7 days of passes ≥ 10°. The values pass through the URL so the page stays shareable.

No JS? Fill the form by hand. The geolocation button needs JavaScript.